This is the latest recevied weather packets stored in our database for station/object KF4UQS-14. If no packets are shown the sender has not sent any weather packets the latest 1 day(s).
| Time | Temp. | Humidity | Pressure | Rain* | Wind** | Luminosity | Snow |
|---|---|---|---|---|---|---|---|
| 1778029732 | 20.56° C | 68% | 1016.3 hPa | 0 mm | 4.47 m/s, 194° | 0 W/m² | - |
| 1778029430 | 20.56° C | 68% | 1016 hPa | 0 mm | 2.68 m/s, 182° | 0 W/m² | - |
| 1778029127 | 20.56° C | 68% | 1015.9 hPa | 0 mm | 3.13 m/s, 194° | 0 W/m² | - |
| 1778028824 | 20.56° C | 67% | 1016 hPa | 0 mm | 3.13 m/s, 183° | 0 W/m² | - |
| 1778028519 | 20.56° C | 67% | 1016 hPa | 0 mm | 3.13 m/s, 186° | 0 W/m² | - |
| 1778028218 | 20.56° C | 68% | 1015.8 hPa | 0 mm | 2.24 m/s, 188° | 0 W/m² | - |
| 1778027913 | 21.11° C | 67% | 1015.4 hPa | 0 mm | 3.58 m/s, 189° | 0 W/m² | - |
| 1778027610 | 21.11° C | 67% | 1015.6 hPa | 0 mm | 3.58 m/s, 178° | 0 W/m² | - |
| 1778027306 | 21.11° C | 67% | 1015.8 hPa | 0 mm | 3.13 m/s, 179° | 0 W/m² | - |
| 1778027003 | 21.11° C | 66% | 1015.8 hPa | 0 mm | 4.02 m/s, 197° | 0 W/m² | - |
| 1778026698 | 21.11° C | 66% | 1015.4 hPa | 0 mm | 4.02 m/s, 216° | 0 W/m² | - |
| 1778026396 | 21.67° C | 65% | 1015.8 hPa | 0 mm | 3.13 m/s, 187° | 0 W/m² | - |
| 1778026093 | 21.67° C | 65% | 1015.6 hPa | 0 mm | 2.24 m/s, 190° | 1 W/m² | - |
| 1778025791 | 21.67° C | 65% | 1015.3 hPa | 0 mm | 2.68 m/s, 188° | 1 W/m² | - |
| 1778025487 | 21.67° C | 65% | 1015.3 hPa | 0 mm | 2.68 m/s, 195° | 2 W/m² | - |
| 1778025185 | 22.22° C | 65% | 1015.1 hPa | 0 mm | 3.13 m/s, 183° | 4 W/m² | - |
| 1778024881 | 22.22° C | 63% | 1015.3 hPa | 0 mm | 2.68 m/s, 185° | 7 W/m² | - |
| 1778024579 | 22.22° C | 63% | 1015.2 hPa | 0 mm | 3.13 m/s, 189° | 11 W/m² | - |
| 1778024276 | 22.78° C | 62% | 1015.1 hPa | 0 mm | 3.58 m/s, 203° | 17 W/m² | - |
| 1778023974 | 22.78° C | 62% | 1015 hPa | 0 mm | 3.58 m/s, 179° | 21 W/m² | - |
| 1778023670 | 22.78° C | 62% | 1015.3 hPa | 0 mm | 3.13 m/s, 200° | 24 W/m² | - |
| 1778023368 | 22.78° C | 61% | 1015.3 hPa | 0 mm | 4.92 m/s, 165° | 33 W/m² | - |
| 1778023064 | 23.33° C | 61% | 1015.1 hPa | 0 mm | 3.58 m/s, 195° | 50 W/m² | - |
| 1778022763 | 23.33° C | 61% | 1014.9 hPa | 0 mm | 2.68 m/s, 193° | 61 W/m² | - |
| 1778022461 | 23.33° C | 61% | 1014.8 hPa | 0 mm | 3.58 m/s, 198° | 60 W/m² | - |
* Rain latest hour (hover to see other rain measurements)
** Current wind speed in m/s (hover to see current wind gust speed)